Date String (YYYY-MM-DD hh:mm:ss) UTC,Instrument flags,absolute air pressure of the measurement (hPa),sample flow rate (lpm),inlet stack bypass flow (lpm),air temperature of the measurement (°C),ambient temperature measured by the external sensor (°C),aerosol sample conditioner tube jacket temperature (°C),OPC LED temperature (°C),internal box temperature (°C),relative humidity of the measurement (%),span deviation,mass concentration of particles derived from Lorenz-Mie calculation of OPC scattering (μg/m³),mass concentration of particles derived from Lorenz-Mie calculation of OPC scattering (μg/m³),mass concentration of particles derived from Lorenz-Mie calculation of OPC scattering (μg/m³)
DateTimeUTC,F1_M11,P_M11,Q1_M11,Q2_M11,T1_M11,T2_M11,T3_M11,T4_M11,T5_M11,U1_M11,ZSPAN_M11,X2_M11,X0_M11,X1_M11
2024-02-20 13:00:00,SystemResetWarning,0827.7,5.01,000.00,020.6,020.1,000.0,029.1,022.4,14.9,0000.0,0001.32,0004.90,0000.99
2024-02-20 13:01:00,SystemResetWarning,0827.7,4.99,000.00,020.6,020.1,000.0,029.1,022.4,14.9,0000.0,0001.28,0004.11,0000.96
2024-02-20 13:02:00,SystemResetWarning,0827.7,4.99,000.00,020.6,020.1,000.0,029.1,022.5,14.8,0000.0,0001.24,0003.43,0000.93
2024-02-20 13:03:00,SystemResetWarning,0827.8,5.00,000.00,020.6,020.1,000.0,029.1,022.5,14.8,0000.0,0001.22,0002.26,0000.91
2024-02-20 13:04:00,SystemResetWarning,0827.8,5.01,000.00,020.7,020.1,000.0,029.1,022.5,14.8,0000.0,0001.14,0002.02,0000.88
2024-02-20 13:05:00,SystemResetWarning,0827.7,5.00,000.00,020.7,020.1,000.0,029.1,022.5,14.8,0000.0,0001.11,0001.97,0000.87
2024-02-20 13:06:00,SystemResetWarning,0827.7,5.00,000.00,020.7,020.1,000.0,029.1,022.5,14.8,0000.0,0001.08,0001.95,0000.85
2024-02-20 13:07:00,SystemResetWarning,0827.8,5.01,000.00,020.7,020.1,000.0,029.1,022.5,14.7,0000.0,0001.03,0001.89,0000.84
2024-02-20 13:08:00,SystemResetWarning,0827.8,5.00,000.00,020.7,020.1,000.0,029.1,022.4,14.8,0000.0,0001.01,0001.83,0000.85
2024-02-20 13:09:00,SystemResetWarning,0827.7,4.99,000.00,020.6,020.1,000.0,029.1,022.4,14.8,0000.0,0001.02,0001.48,0000.86
2024-02-20 13:10:00,SystemResetWarning,0827.8,4.99,000.00,020.6,020.1,000.0,029.1,022.4,15.0,0000.0,0001.03,0001.45,0000.87
2024-02-20 13:11:00,SystemResetWarning,0827.8,5.00,000.00,020.6,020.1,000.0,029.1,022.4,14.9,0000.0,0001.05,0001.51,0000.87
2024-02-20 13:12:00,SystemResetWarning,0827.9,5.00,000.00,020.6,020.1,000.0,029.1,022.4,14.8,0000.0,0001.12,0001.65,0000.87
2024-02-20 13:13:00,SystemResetWarning,0827.9,5.01,000.00,020.6,020.1,000.0,029.1,022.5,14.8,0000.0,0001.15,0001.68,0000.88
2024-02-20 13:14:00,SystemResetWarning,0827.8,5.01,000.00,020.6,020.1,000.0,029.1,022.5,14.8,0000.0,0001.19,0001.77,0000.89
2024-02-20 13:15:00,SystemResetWarning,0827.8,5.00,000.00,020.7,020.1,000.0,029.1,022.5,14.8,0000.0,0001.22,0001.82,0000.91
2024-02-20 13:16:00,SystemResetWarning,0827.7,4.99,000.00,020.7,020.1,000.0,029.1,022.5,14.8,0000.0,0001.25,0001.87,0000.91
2024-02-20 13:17:00,SystemResetWarning,0827.7,4.99,000.00,020.7,020.1,000.0,029.1,022.5,14.8,0000.0,0001.24,0001.81,0000.91
2024-02-20 13:18:00,SystemResetWarning,0827.7,5.00,000.00,020.6,020.1,000.0,029.1,022.4,14.8,0000.0,0001.25,0001.81,0000.92
2024-02-20 13:19:00,SystemResetWarning,0827.7,5.01,000.00,020.6,020.1,000.0,029.1,022.4,14.9,0000.0,0001.27,0001.88,0000.92
2024-02-20 13:20:00,SystemResetWarning,0827.9,5.00,000.00,020.6,020.1,000.0,029.1,022.5,15.0,0000.0,0001.26,0001.90,0000.90
2024-02-20 13:21:00,SystemResetWarning,0828.0,5.00,000.00,020.7,020.1,000.0,029.1,022.5,14.9,0000.0,0001.26,0001.98,0000.89
2024-02-20 13:22:00,SystemResetWarning,0827.9,5.00,000.00,020.7,020.1,000.0,029.1,022.5,14.9,0000.0,0001.27,0001.98,0000.90
2024-02-20 13:23:00,SystemResetWarning,0827.8,5.00,000.00,020.7,020.1,000.0,029.1,022.5,15.0,0000.0,0001.23,0001.88,0000.92
2024-02-20 13:24:00,SystemResetWarning,0827.9,5.00,000.00,020.7,020.1,000.0,029.1,022.5,15.0,0000.0,0001.21,0001.82,0000.92
2024-02-20 13:25:00,SystemResetWarning,0827.9,5.00,000.00,020.7,020.1,000.0,029.1,022.5,15.0,0000.0,0001.16,0001.70,0000.92
2024-02-20 13:26:00,SystemResetWarning,0827.8,5.01,000.00,020.7,020.1,000.0,029.1,022.5,14.8,0000.0,0001.17,0001.74,0000.93
2024-02-20 13:27:00,SystemResetWarning,0827.9,5.01,000.00,020.7,020.1,000.0,029.1,022.5,14.8,0000.0,0001.15,0001.70,0000.94
2024-02-20 13:28:00,SystemResetWarning,0827.7,5.00,000.00,020.7,020.1,000.0,029.1,022.4,15.2,0000.0,0001.14,0001.69,0000.94
2024-02-20 13:29:00,SystemResetWarning,0827.8,5.01,000.00,020.7,020.1,000.0,029.1,022.5,15.2,0000.0,0001.14,0001.67,0000.93
2024-02-20 13:30:00,SystemResetWarning,0827.7,5.00,000.00,020.7,020.1,000.0,029.1,022.5,14.9,0000.0,0001.12,0001.63,0000.93
2024-02-20 13:31:00,SystemResetWarning,0827.7,4.99,000.00,020.7,020.1,000.0,029.1,022.4,15.0,0000.0,0001.12,0001.62,0000.93
2024-02-20 13:32:00,SystemResetWarning,0827.6,4.99,000.00,020.6,020.1,000.0,029.1,022.4,15.1,0000.0,0001.12,0001.56,0000.93
2024-02-20 13:33:00,SystemResetWarning,0827.6,5.00,000.00,020.6,020.1,000.0,029.1,022.4,15.1,0000.0,0001.13,0002.39,0000.92
2024-02-20 13:34:00,SystemResetWarning,0827.5,5.00,000.00,020.6,020.1,000.0,029.1,022.5,15.1,0000.0,0001.12,0002.97,0000.91
2024-02-20 13:35:00,SystemResetWarning,0827.7,5.00,000.00,020.7,020.1,000.0,029.1,022.5,15.1,0000.0,0001.10,0003.15,0000.90
2024-02-20 13:36:00,SystemResetWarning,0827.8,5.00,000.00,020.7,020.1,000.0,029.1,022.5,15.1,0000.0,0001.11,0003.21,0000.90
2024-02-20 13:37:00,SystemResetWarning,0827.8,5.00,000.00,020.7,020.1,000.0,029.1,022.5,15.1,0000.0,0001.07,0003.10,0000.88
2024-02-20 13:38:00,SystemResetWarning,0827.6,5.00,000.00,020.7,020.1,000.0,029.1,022.5,15.0,0000.0,0001.07,0003.72,0000.87
2024-02-20 13:39:00,SystemResetWarning,0827.8,5.00,000.00,020.7,020.1,000.0,029.1,022.5,15.0,0000.0,0001.09,0004.50,0000.87
2024-02-20 13:40:00,SystemResetWarning,0828.1,5.00,000.00,020.7,020.1,000.0,029.1,022.5,15.1,0000.0,0001.12,0004.67,0000.86
2024-02-20 13:41:00,SystemResetWarning,0828.0,5.00,000.00,020.7,020.1,000.0,029.1,022.5,15.1,0000.0,0001.11,0004.64,0000.86
2024-02-20 13:42:00,SystemResetWarning,0827.8,5.00,000.00,020.7,020.1,000.0,029.1,022.4,15.1,0000.0,0001.13,0004.69,0000.86
2024-02-20 13:43:00,SystemResetWarning,0827.7,5.01,000.00,020.6,020.1,000.0,029.1,022.4,15.1,0000.0,0001.15,0004.72,0000.87
2024-02-20 13:44:00,SystemResetWarning,0827.7,5.00,000.00,020.6,020.1,000.0,029.1,022.4,15.3,0000.0,0001.14,0003.94,0000.87
2024-02-20 13:45:00,SystemResetWarning,0827.7,5.00,000.00,020.6,020.1,000.0,029.1,022.4,15.3,0000.0,0001.13,0003.39,0000.87
2024-02-20 13:46:00,SystemResetWarning,0827.8,5.00,000.00,020.6,020.0,000.0,029.1,022.4,15.4,0000.0,0001.16,0003.14,0000.89
2024-02-20 13:47:00,SystemResetWarning,0827.8,5.00,000.00,020.6,020.1,000.0,029.1,022.4,15.4,0000.0,0001.16,0003.90,0000.89
2024-02-20 13:48:00,SystemResetWarning,0827.7,4.99,000.00,020.6,020.1,000.0,029.1,022.4,15.4,0000.0,0001.18,0005.47,0000.89
2024-02-20 13:49:00,SystemResetWarning,0827.8,4.99,000.00,020.6,020.1,000.0,029.1,022.4,15.3,0000.0,0001.18,0005.46,0000.90
2024-02-20 13:50:00,SystemResetWarning,0827.9,5.00,000.00,020.6,020.1,000.0,029.1,022.4,15.2,0000.0,0001.20,0004.20,0000.90
2024-02-20 13:51:00,SystemResetWarning,0827.9,5.00,000.00,020.6,020.1,000.0,029.1,022.4,15.2,0000.0,0001.19,0004.11,0000.90
2024-02-20 13:52:00,SystemResetWarning,0827.7,5.01,000.00,020.6,020.1,000.0,029.1,022.5,15.3,0000.0,0001.19,0004.86,0000.90
2024-02-20 13:53:00,SystemResetWarning,0827.7,5.00,000.00,020.6,020.1,000.0,029.1,022.4,15.3,0000.0,0001.20,0005.23,0000.90
2024-02-20 13:54:00,SystemResetWarning,0827.7,5.00,000.00,020.6,020.1,000.0,029.1,022.4,15.3,0000.0,0001.17,0005.17,0000.90
2024-02-20 13:55:00,SystemResetWarning,0827.8,4.99,000.00,020.6,020.1,000.0,029.1,022.4,15.3,0000.0,0001.18,0005.15,0000.90
2024-02-20 13:56:00,SystemResetWarning,0827.8,4.99,000.00,020.6,020.1,000.0,029.1,022.5,15.3,0000.0,0001.18,0005.15,0000.90
2024-02-20 13:57:00,SystemResetWarning,0827.9,5.01,000.00,020.7,020.1,000.0,029.1,022.5,15.3,0000.0,0001.16,0005.13,0000.89
2024-02-20 13:58:00,SystemResetWarning,0827.9,5.01,000.00,020.7,020.1,000.0,029.1,022.5,15.3,0000.0,0001.15,0004.58,0000.88
2024-02-20 13:59:00,SystemResetWarning,0827.8,5.01,000.00,020.7,020.1,000.0,029.1,022.5,15.2,0000.0,0001.14,0003.00,0000.87
